sat.trackr.live / text

‹ back to catalog

STARLINK-34770

NORAD 65036 · 2025-161X

PAYLOAD ACTIVE UNKNOWN

§ Identity

Operator
Country
US
Launch date
2025-07-30
Launch site
AFWTR
Launch vehicle
Mass (kg)
RCS (m²)

Purposes: comms

External: N2YO · Heavens-Above · Gunter

§ Orbital elements

Epoch: 2026-05-25T03:37:51.347136Z

Period
94.10 min
Inclination
53.1587°
Eccentricity
0.0002290
Mean motion
15.30207759 rev/d
Perigee alt
473.6 km
Apogee alt
476.8 km
Semi-major
6,853.3 km
B*
5.0719e-4
RAAN
299.2444°
Arg perigee
73.3064°
Mean anomaly
286.8188°
Rev number
4,593

§ Raw data

STARLINK-347701 65036U 25161X   26145.15128874  .00014696  00000+0  50719-3 0  99992 65036  53.1587 299.2444 0002290  73.3064 286.8188 15.30207759 45932

JSON: /api/v1/satellites/65036 · /tle

For live sub-satellite position, see the globe view (requires WebGL).

§ Visibility from observer

Set your observer location to see the next 7 days of passes ≥ 10°. The values pass through the URL so the page stays shareable.

No JS? Fill the form by hand. The geolocation button needs JavaScript.